Tracking 20724 objects as of 2-Jun-2020
HD Live streaming from Space Station
objects crossing your sky now

COSMOS 1174 DEB

Track COSMOS 1174 DEB now!
10-day predictions


NORAD ID: 12354
Int'l Code: 1980-030Y
Perigee: 396.7 km
Apogee: 992.0 km
Inclination: 66.1 °
Period: 98.5 minutes
Semi major axis: 7065 km
RCS: 0.107 m2 (medium)
Launch date: April 18, 1980
Source: Commonwealth of Independent States (former USSR) (CIS)
Launch site: TYURATAM MISSILE AND SPACE COMPLEX (TTMTR)

Note: This is SATELLITE DEBRIS
aabbcc
Your satellite tracking list
Your tracking list is empty




NASA's NSSDC Master Catalog

Two Line Element Set (TLE):
1 12354U 80030Y   20154.51058941 +.00000163 +00000-0 +20290-4 0  9998
2 12354 066.1079 071.5048 0421288 208.0989 149.6804 14.61840287072127
Source of the keplerian elements: AFSPC